Regional Weather Roundup
Issued by NWS Newport/Morehead, NC

Current Version | Previous Version | Graphics & Text | Print | Product List | Glossary Off
Versions: 1 2 3 4 5 6 7 8 9 10 11 12 13 14 15 16 17 18 19 20 21 22 23 24 25 26 27 28 29 30 31 32 33 34 35 36 37 38 39 40 41 42 43 44 45 46 47 48 49 50
000 ASUS42 KMHX 202122 RWRMHX WEATHER ROUNDUP FOR EASTERN NORTH CAROLINA NATIONAL WEATHER SERVICE NEWPORT/MOREHEAD CITY NC 400 PM EST SAT DEC 20 2014 NOTE: "FAIR" INDICATES FEW OR NO CLOUDS BELOW 12,000 FEET WITH NO SIGNIFICANT WEATHER AND/OR OBSTRUCTIONS TO VISIBILITY NCZ015>017-031-032-045>047-102-103-202200- NORTH COAST CITY SKY/WX TMP DP RH WIND PRES REMARKS EDENTON CLOUDY 42 32 68 CALM 30.26F ELIZABETH CITY CLOUDY 45 30 55 CALM 30.27R KITTY HAWK CLOUDY 41 32 70 N5 30.25S MANTEO CLOUDY 42 32 69 N8 30.26S $$ NCZ045>047-081-094-103-104-202200- CENTRAL COAST CITY SKY/WX TMP DP RH WIND PRES REMARKS FRISCO CLOUDY 42 37 82 NE7 30.25R SWANQUARTER N/A 41 N/A N/A NE2 30.21S $$ NCZ095-097-098-100-101-202200- SOUTHERN COAST CITY SKY/WX TMP DP RH WIND PRES REMARKS BEAUFORT CLOUDY 42 39 89 NE8 30.24S CEDAR ISLAND N/A 43 N/A N/A N9 30.27S JACKSONVILLE LGT RAIN 42 39 89 NE7 30.23S PINEY ISLAND CLOUDY 45 36 70 NE8 30.24S WILMINGTON LGT RAIN 44 41 89 NE7 30.23S $$ NCZ011>013-027>030-043-044-078>080-089-090>093-098-202200- COASTAL PLAIN CITY SKY/WX TMP DP RH WIND PRES REMARKS AHOSKIE MOCLDY 40 29 66 CALM 30.27R CLINTON CLOUDY 42 39 92 NE3 30.26R ELIZABETHTOWN CLOUDY 41 40 95 CALM 30.24R FOG GOLDSBORO MOCLDY 40 39 98 CALM 30.24R GREENVILLE CLOUDY 41 34 75 E3 30.27S HAVELOCK LGT RAIN 42 37 82 N6 30.26R KENANSVILLE PTSUNNY 40 38 91 N3 30.26R KINSTON MOCLDY 41 37 87 NE3 30.26R NEW BERN LGT RAIN 43 37 79 N6 30.27S RICHLANDS CLOUDY 39 36 87 NE7 30.25R ROCKY MOUNT CLOUDY 40 33 76 CALM 30.26S WASHINGTON CLOUDY 40 34 79 NE3 30.27R WHITEVILLE CLOUDY 44 40 87 NE3 30.21S $$ AMZ130-135-150-152-154-156-158-170-250-252-270-ANZ085-086-088-633-658-670-202200- MARINE OBSERVATIONS STATION/POSITION TIME TEMP WIND PRES WAVE SWELL AIR SEA DIR/SP/G HT/PER HT/PER (UTC) (F) (DEG/KT/KT) (MB) (FT/S) (FT/S) CHESAPEAKE LIGHT 2100 38 340/ 8/ 9 1025.6 64 E VA BEACH 2100 42 54 340/ 12/ 14 1023.5 2/ 6 2/ 6 DUCK 2100 41 46 10/ 8/ 10 1023.8 2 E DUCK 2100 47 N/A 2/ 5 10 NE DUCK 2100 52 N/A 3/ 6 OREGON INLET 2100 42 49 360/ 7/ 10 1024.2 13E OREGON INLT 2100 52 N/A 3/ 5 HATTERAS CG 2100 44 52 30/ 12/ 14 1024.2 DIAMOND BUOY 2100 49 1023.9 3/ 6 17 S OCRACOKE NOT AVBL CAPE LOOKOUT 2100 43 20/ 13/ 15 1023.7 BEAUFORT LAB 2100 42 51 20/ 8/ 9 1022.8 30 SE NEW RIVER 2100 48 61 40/ 16/ 19 1023.2 3/ 5 5 SE WRIGHTSVLE NOT AVBL 225 S CAPE HAT 2022 65 71 110/ 16/ 17 1019.8 3/10 2/10 41 SE CHARLESTON 2100 61 69 30/ 17/ 21 1019.5 4/ 5 2/10 $$

USA.gov is the U.S. government's official web portal to all federal, state and local government web resources and services.